Regional Weather Roundup
Issued by NWS

Home | Current Version | Previous Version | Text Only | Print | Product List | Glossary Off
Versions: 1 2 3 4 5 6 7 8 9 10 11 12 13 14 15 16 17 18 19 20 21 22 23 24 25 26 27 28 29 30 31 32 33 34 35 36 37 38 39 40 41 42 43 44 45 46 47 48 49 50

000
ASUS43 KLMK 272202
RWRKY
KENTUCKY REGIONAL WEATHER ROUNDUP
NATIONAL WEATHER SERVICE LOUISVILLE KY
600 PM EDT WED JUL 27 2016

NOTE "FAIR" INDICATES FEW OR NO CLOUDS BELOW 12,000 FEET
WITH NO SIGNIFICANT WEATHER AND/OR OBSTRUCTIONS TO VISIBILITY.

KYZ001>023-026-027-061>063-070>075-272300-
WESTERN AND SOUTH CENTRAL KENTUCKY

CITY           SKY/WX    TMP DP  RH WIND       PRES   REMARKS
PADUCAH        TSTM      78  74  87 NW9       29.90R VSB 1
HENDERSON      CLOUDY    88  75  66 N5        29.89F THUNDER HX  97
OWENSBORO      MOSUNNY   92  75  57 S6        29.91F HX 102
HOPKINSVILLE   MOSUNNY   87  75  67 S7        29.90F HX  97
BOWLING GREEN  CLOUDY    90  75  61 S16       29.91F THUNDER HX 100
GLASGOW        NOT AVBL
$$

KYZ024-025-028>034-038-045-046-053-272300-
NORTH CENTRAL KENTUCKY

CITY           SKY/WX    TMP DP  RH WIND       PRES   REMARKS
LOUISVILLE/SDF PTSUNNY   92  71  50 W6        29.93R THUNDER HX  98
LOUISVILLE/LOU MOSUNNY   88  75  65 NE9       29.94R THUNDER HX  97
FORT KNOX      CLOUDY    87  74  63 SW2       29.93S HX  95
$$

KYZ035>037-039>044-047>052-055>060-089>105-272300-
NORTHEAST KENTUCKY

CITY           SKY/WX    TMP DP  RH WIND       PRES   REMARKS
LEXINGTON      MOSUNNY   86  72  62 W5        29.96F HX  92
COVINGTON      PTSUNNY   87  70  56 W7        29.95F HX  92
FRANKFORT      MOSUNNY   87  72  60 CALM      29.95S HX  93
$$

KYZ054-064>069-076>088-106>120-272300-
SOUTHEAST KENTUCKY

CITY           SKY/WX    TMP DP  RH WIND       PRES   REMARKS
JACKSON        MOSUNNY   90  73  57 VRB3      29.98S HX  98
LONDON         CLOUDY    91  68  46 W7        29.96F HX  95
SOMERSET       MOSUNNY   90  70  51 W9        29.96F HX  95
MIDDLESBORO    CLOUDY    92  69  47 CALM      29.96F HX  96
MONTICELLO     CLOUDY   N/A N/A N/A W18       29.97F
$$





USA.gov is the U.S. government's official web portal to all federal, state and local government web resources and services.